This is the latest recevied weather packets stored in our database for station/object APPOWX. If no packets are shown the sender has not sent any weather packets the latest 10 day(s).
| Time | Temp. | Humidity | Pressure | Rain* | Wind** | Luminosity | Snow |
|---|---|---|---|---|---|---|---|
| 1778280045 | 18.89° C | 40% | 1015.1 hPa | 0 mm | - | - | - |
| 1778279986 | 18.89° C | 40% | 1015.3 hPa | 0 mm | - | - | - |
| 1778279926 | 18.89° C | 41% | 1015.1 hPa | 0 mm | - | - | - |
| 1778279865 | 19.44° C | 40% | 1015.3 hPa | 0 mm | - | - | - |
| 1778279805 | 19.44° C | 41% | 1015.3 hPa | 0 mm | - | - | - |
| 1778279745 | 19.44° C | 42% | 1015.1 hPa | 0 mm | - | - | - |
| 1778279686 | 19.44° C | 40% | 1015.1 hPa | 0 mm | - | - | - |
| 1778279625 | 19.44° C | 41% | 1015.4 hPa | 0 mm | - | - | - |
| 1778279565 | 19.44° C | 39% | 1015.3 hPa | 0 mm | - | - | - |
| 1778279506 | 19.44° C | 39% | 1015.2 hPa | 0 mm | - | - | - |
| 1778279445 | 19.44° C | 38% | 1015.3 hPa | 0 mm | - | - | - |
| 1778279385 | 19.44° C | 42% | 1015.4 hPa | 0 mm | - | - | - |
| 1778279325 | 19.44° C | 41% | 1015.4 hPa | 0 mm | - | - | - |
| 1778279265 | 19.44° C | 39% | 1015.2 hPa | 0 mm | - | - | - |
| 1778279205 | 19.44° C | 40% | 1015.5 hPa | 0 mm | - | - | - |
| 1778279145 | 19.44° C | 38% | 1015.4 hPa | 0 mm | - | - | - |
| 1778279085 | 19.44° C | 39% | 1015.3 hPa | 0 mm | - | - | - |
| 1778279024 | 19.44° C | 41% | 1015.2 hPa | 0 mm | - | - | - |
| 1778278965 | 19.44° C | 39% | 1015.3 hPa | 0 mm | - | - | - |
| 1778278904 | 19.44° C | 40% | 1015.4 hPa | 0 mm | - | - | - |
| 1778278845 | 19.44° C | 40% | 1015.3 hPa | 0 mm | - | - | - |
| 1778278785 | 19.44° C | 40% | 1015.2 hPa | 0 mm | - | - | - |
| 1778278724 | 19.44° C | 39% | 1015.3 hPa | 0 mm | - | - | - |
| 1778278665 | 19.44° C | 38% | 1015.1 hPa | 0 mm | - | - | - |
| 1778278605 | 19.44° C | 37% | 1015.1 hPa | 0 mm | - | - | - |
* Rain latest hour (hover to see other rain measurements)
** Current wind speed in m/s (hover to see current wind gust speed)